sat.trackr.live / text

‹ back to catalog

STARLINK-11408 [DTC]

NORAD 63064 · 2025-035N

PAYLOAD ACTIVE UNKNOWN

§ Identity

Operator
Country
US
Launch date
2025-02-21
Launch site
AFETR
Launch vehicle
Mass (kg)
RCS (m²)

Purposes: comms

External: N2YO · Heavens-Above · Gunter

§ Orbital elements

Epoch: 2026-09-20T22:41:25.189152Z

Period
91.66 min
Inclination
42.9994°
Eccentricity
0.0002852
Mean motion
15.71056782 rev/d
Perigee alt
354.0 km
Apogee alt
357.8 km
Semi-major
6,734.0 km
B*
1.0214e-3
RAAN
278.0312°
Arg perigee
292.9666°
Mean anomaly
67.0900°
Rev number
9,193

§ Raw data

STARLINK-11408 [DTC]1 63064U 25035N   26263.94543043  .00133970  00000+0  10214-2 0  99972 63064  42.9994 278.0312 0002852 292.9666  67.0900 15.71056782 91934

JSON: /api/v1/satellites/63064 · /tle

For live sub-satellite position, see the globe view (requires WebGL).

§ Visibility from observer

Set your observer location to see the next 7 days of passes ≥ 10°. The values pass through the URL so the page stays shareable.

No JS? Fill the form by hand. The geolocation button needs JavaScript.